STARLINK-31873, 59790

Orbit data source: Space-Track

STARLINK-31873, 59790 is a payload satellite owned by SpaceX/Seattle (US) in LEO that was launched on Sat, 18 May 2024 UTC via an FALCON 9 launch vehicle from the Air Force Eastern Test Range (AFETR). Payload-class satellites include a variety of spacecraft equipped with specific instruments for various scientific and technological missions. These include communications satellites like Starlink; space stations such as the ISS; scientific satellites like the Hubble; Earth observation satellites from companies like Planet Labs, Umbra, and HawkEye 360; GPS; miniature CubeSats for education and research; and military/defense satellites.

Loading next visibility...
Identifier
59790, 2024-093J
Orbit
LEO
Country
Flag of USUS
Related business
Manufacturer
SpaceX/Seattle
Mission
Operational Commercial Communications
Bus & Motor
STARLINK V2M, Unknown motor
Mass
730 kg wet, ~700 kg dry
Launch date (UTC)
2024-05-18 (2 years ago)
Launch vehicle
FALCON 9
Launch site
Air Force Eastern Test Range (AFETR)
Object type
Payload
Rocket body
Debris
Shape & HBR
Box + 2 Pan, 17.7 m
Radar Cross Section
33.884 m², Large (>1 m²)

Expand to show TLE details & history
Last TLE update: 22 hours ago

TLE from 22 hours ago
0 STARLINK-31873
1 59790U 24093J   25352.91460796  .00000246  00000-0  18454-4 0  9995
2 59790  43.0011 304.9244 0000930 259.0270 101.0477 15.27579742 90349
Epoch: 2025-12-18T21:57Z
TLE epoch observation values (Epoch: 2025-12-18T21:57:02.127Z)
Latitude
-0.00003°
Longitude
-112.09777°
Altitude
482.948 km
Speed
7.626 km/s
True Right ascension
20h 19m 41s
True Declination
0° 00' 00"
Sunlit
Object was in daylight at epoch
Visualization orbit readout
Latitude
Unknown
Longitude
Unknown
Altitude
Unknown
Speed
Unknown
Apparent Right ascension
Unknown
Apparent Declination
Unknown
Sunlit
N/A
Visualization observer readout
Local Sidereal Time
19:01:28
Azimuth
Unknown
Elevation
Unknown
Doppler factor
Unknown
Orbital elements
Apogee altitude
485.633 km
Perigee altitude
484.357 km
Semi-major axis
6,863.132 km
Eccentricity
0.00009
Inclination
43.0011°
RAAN
304.9244°
Arg. of periapsis
259.027°
True anomaly
101.05816°
Mean anomaly
101.0477°
Eccentric anomaly
101.05293°
Mean motion
3.81733 °/min
Orbital period
94.31 mins
BSTAR
0.000018454
Loading maneuver chart data...
Computing Atmospheric mass density...
Loading historical data...
Loading historical data...
Loading historical data...
Loading historical data...
Loading historical data...
Loading historical data...
Loading historical data...

Documentation

Showing up to 5 results
|